Showing default

MKA PN2 (RELEK), 40070

Orbit data source: Space-Track

MKA PN2 (RELEK), 40070 is a Commonwealth of Independent States-origin payload satellite in SSO that was launched on Tue, 08 Jul 2014 UTC via a SOYUZ-2-1B launch vehicle from the Tyuratam Missile And Space Complex (TTMTR). Payloads include a variety of satellites, spacecraft, and rockets equipped with specific instruments for various scientific and technological missions. These include communications satellites like Starlink; space stations such as the ISS; scientific satellites like the Hubble; Earth observation satellites from companies like Planet Labs, Umbra, and HawkEye 360; GPS; miniature CubeSats for education and research; and military/defense satellites.

Loading next visibility...
MKA PN2 (RELEK) details
Identifier
40070, 2014-037B
Orbit
SSO
Last TLE update22 hours ago
Origin
Flag of CISNPOLO/IKI (CIS)
ManufacturerLavochkin
MissionNon-operational Civil Science
Bus & MotorKARAT, Unknown motor
Mass288 kg wet, 288 kg dry
Launch date (UTC)
2014-07-08 (10 years ago)
Launch vehicle
SOYUZ-2-1B
Launch site
Tyuratam Missile And Space Complex (TTMTR)
Object type
Payload
Rocket body
Debris
Shape & HBRBox, 1 m
Radar Cross Section1.500 m², Large (>1 m²)

Expand to show TLE details & history

TLE from 22 hours ago
0 MKA PN2 (RELEK)
1 40070U 14037B   24360.55888263  .00002413  00000-0  51485-3 0  9992
2 40070  98.0140 347.4363 0131427 303.6359  55.2356 14.54527558554750
Epoch: 2024-12-25T13:24Z
Definitive object data (Epoch: 2024-12-25T13:24:47.459Z)
Latitude
Longitude51.68766°
Altitude661.583 km
Speed7.554 km/s
True Right ascension23h 09m 44s
True Declination0° 00' 00"
Sunlit
Object was in daylight at TLE epoch
Visualization TLE readout
Latitude48.62035°
Longitude43.40746°
Altitude746.737 km
Speed7.471 km/s
Apparent Right ascension22h 31m 52s
Apparent Declination7° 25' 14"
Sunlit
Object is in daylight
Visualization observer readout
Local Sidereal Time10:27:18
Azimuth358.459° N
Elevation-42.652°
Doppler factor1
Orbital elements
Apogee altitude801.109 km
Perigee altitude614.848 km
Semi-major axis7,086.116 km
Eccentricity0.0131427
Inclination98.014°
RAAN347.4363°
Arg. of periapsis303.6359°
True anomaly56.48442°
Mean anomaly55.2356°
Eccentric anomaly55.85884°
Mean motion3.63857 °/min
BSTAR0.00051485
Orbital period98.94 mins
Loading maneuver chart data...
Loading historical data...
Loading historical data...
Loading historical data...
Loading historical data...
Loading historical data...
Loading historical data...
Loading historical data...

MKA PN2 (RELEK) Visibility forecast

Observer location: undefined°, undefined

Span
Click to sort rows by Start time (UTC) header in descending order
Start Az.
Max El. time (UTC)
Max El. Az.
Max El.
End time (UTC)
End Az.
8 mins2024-12-26 11:28:00.801Z38.037° NE2024-12-26 11:32:00.801Z99.497° ESE28.174°2024-12-26 11:36:00.801Z156.174° SSE
7 mins2024-12-26 13:07:00.801Z337.092° NNW2024-12-26 13:10:00.801Z284.096° WNW26.996°2024-12-26 13:14:00.801Z232.588° WSW
7 mins2024-12-26 22:35:00.801Z117.85° SE2024-12-26 22:38:00.801Z62.49° ENE27.127°2024-12-26 22:42:00.801Z8.224° NNE
6 mins2024-12-27 00:13:00.801Z219.303° SW2024-12-27 00:16:00.801Z273.056° WNW24.693°2024-12-27 00:19:00.801Z317.452° NNW
|